Delta Virtual Airport Information Service

Shanghai Pudong International Airport

ICAO: ZSPD Country: China
Latitude: 31.1434 Longitude: 121.805
Latest Arrival : QFA129 (YSSY-ZSPD) Latest Departure : DAL388 (1) (ZSPD-KDTW)


WX CaptureLIVE
Data provided by noaa.gov | Fetched at 00:02:38

METAR : ZSPD 120300Z 05005MPS 010V090 9999 BKN011 21/18 Q1009 BECMG TL0430 BKN015

TAF : ZSPD 112104Z 1200/1224 03004MPS 6000 BKN005 TX26/1206Z TN20/1221Z BECMG 1203/1204 BKN015


Runway Data for ZSPD
Data provided by openaviationdata.com

Runway ID Mag Var Hdg Length Elevation Surface ILS Freq ILS Id ILS Slope
16 -5 167° 12467 ft 10 ft Concrete -- -- --
17 -5 167° 13150 ft 10 ft Concrete 110.7 IPD 3
34 -5 347° 12467 ft 10 ft Concrete -- -- --
35 -5 347° 13150 ft 10 ft Concrete 111.9 INN 3

Shanghai Pudong International Airport, China
Use only for reference purposes



Not for navigational purposes.